Terug naar catalogus

BREEZE-M DEB

ActiefHEO
NORAD 32043·DEBRIS·🇷🇺 Russia

Gelanceerd Feb 28, 2006 vanaf Baikonur Cosmodrome

Loading…

Volgende Passages (komende 24 uur)

TLE

VersSource: Space-Track

Epoch: Sep 14, 2026, 01:21 UTC

1 32043U 06006W   26257.05643851  .00000142  00000-0  32358-3 0  9999
2 32043  51.5725 181.1663 5107599  26.2483 352.5111  5.19508695370563

Volg BREEZE-M DEB in realtime met AllMySat

Download on the App Store